Location: Limerick
(52.6650°N, 8.6230°W)
Time: 19:45:26
(UTC+01:00)

ISS - Pass Details

Date: 26 July 2017
Orbit: 400 x 408 km, 51.6° (Epoch: 21 July)

Event Time Altitude Azimuth Distance (km) Brightness Sun altitude
Rises 01:23:03 0° 272° (W) 2,313 0.1 -17.8°
Reaches altitude 10° 01:25:08 10° 270° (W) 1,454 -1.0 -17.8°
Maximum altitude 01:28:23 72° 187° (S) 426 -4.0 -17.9°
Enters shadow 01:29:15 44° 115° (ESE) 568 -3.4 -17.9°
